CDT,Max TemperatureF,Mean TemperatureF,Min TemperatureF,Max Dew PointF,MeanDew PointF,Min DewpointF,Max Humidity, Mean Humidity, Min Humidity, Max Sea Level PressureIn, Mean Sea Level PressureIn, Min Sea Level PressureIn, Max VisibilityMiles, Mean VisibilityMiles, Min VisibilityMiles, Max Wind SpeedMPH, Mean Wind SpeedMPH, Max Gust SpeedMPH,PrecipitationIn, CloudCover, Events, WindDirDegrees
2013-4-1,40,34,28,28,21,16,81,60,40,30.21,30.12,29.94,10,10,10,18,13,26,0.00,2,,302
2013-4-2,44,34,23,23,19,13,87,57,30,30.32,30.27,30.21,10,10,10,20,9,26,0.00,0,,295
2013-4-3,48,36,24,21,17,12,80,47,24,30.45,30.36,30.31,10,10,10,12,7,17,0.00,0,,91
2013-4-4,59,42,26,32,23,16,74,46,24,30.31,30.12,29.99,10,10,10,10,5,17,0.00,0,,266
2013-4-5,55,44,33,34,26,15,81,52,25,30.21,30.13,30.03,10,10,10,18,10,24,0.00,2,,65
2013-4-6,68,52,36,49,33,20,81,49,29,30.10,29.83,29.62,10,10,5,33,17,47,0.11,3,Rain-Thunderstorm,185
2013-4-7,62,52,42,46,41,36,87,68,43,29.96,29.87,29.69,10,9,5,23,11,29,0.00,3,,305
2013-4-8,72,56,42,54,50,36,95,70,51,29.92,29.77,29.61,10,9,2,30,13,44,0.50,4,Rain-Thunderstorm,202
2013-4-9,76,60,45,61,50,42,90,81,56,29.92,29.86,29.79,10,8,2,23,12,28,0.28,7,Rain-Thunderstorm,89
2013-4-10,45,42,38,43,40,36,95,91,87,29.94,29.86,29.75,10,8,3,30,15,37,1.14,8,Rain-Thunderstorm,66
2013-4-11,50,44,39,47,42,34,95,91,79,29.72,29.63,29.58,10,7,1,28,16,37,0.08,8,Rain,207
2013-4-12,42,40,37,38,34,32,93,80,70,29.89,29.72,29.60,10,9,2,25,14,33,0.01,8,Rain,257
2013-4-13,48,42,35,36,31,28,88,70,52,29.98,29.94,29.88,10,10,5,22,12,30,0.00,7,,273
2013-4-14,73,58,42,51,42,34,77,60,39,29.98,29.78,29.61,10,10,10,28,14,36,0.00,3,Rain,104
2013-4-15,63,54,43,55,49,40,94,81,59,30.00,29.83,29.67,10,9,4,30,15,37,0.25,7,Rain-Thunderstorm,255
2013-4-16,53,46,39,42,37,33,90,71,51,30.25,30.13,29.97,10,10,10,17,8,24,0.00,6,Rain,349
2013-4-17,55,48,43,52,41,34,96,83,66,30.26,30.06,29.77,10,7,1,24,13,33,1.47,8,Rain-Thunderstorm,79
2013-4-18,62,50,39,59,51,32,96,91,75,29.73,29.57,29.44,10,7,1,33,15,41,3.28,8,Rain-Thunderstorm,166
2013-4-19,39,37,35,33,30,28,79,74,67,29.98,29.70,29.55,10,10,7,32,25,41,0.00,8,,267
2013-4-20,45,38,32,31,28,22,90,66,41,30.39,30.23,29.99,10,10,10,15,9,21,0.00,2,,296
2013-4-21,55,45,35,38,32,27,75,58,48,30.49,30.38,30.30,10,10,10,22,14,29,0.00,1,,117
2013-4-22,66,54,41,44,37,33,74,54,35,30.30,30.17,30.02,10,10,10,20,12,24,0.00,1,,119
2013-4-23,54,47,38,50,43,36,93,88,62,30.03,29.96,29.92,10,8,3,16,8,21,0.39,7,Rain,286
2013-4-24,50,42,35,36,32,27,93,68,46,30.14,30.06,29.97,10,10,7,17,12,23,0.01,4,Rain,283
2013-4-25,52,46,39,36,29,23,83,53,32,30.32,30.22,30.08,10,10,10,26,14,33,0.00,1,,271
2013-4-26,66,54,41,46,39,29,75,59,44,30.33,30.29,30.24,10,10,10,24,12,29,0.00,2,,202
2013-4-27,66,55,44,49,45,40,93,68,40,30.30,30.16,30.00,10,10,4,15,8,23,0.00,4,,133
2013-4-28,66,59,52,54,51,49,92,79,56,30.00,29.89,29.83,10,9,5,9,4,,0.00,6,Rain,38
2013-4-29,75,62,49,57,53,47,91,71,48,29.92,29.84,29.74,10,10,7,22,11,30,0.00,0,,152
2013-4-30,85,72,60,60,56,51,88,62,32,29.94,29.82,29.77,10,10,10,17,13,23,0.00,0,,142